Regional Weather Roundup
Issued by NWS

Home | Current Version | Previous Version | Graphics & Text | Print | Product List | Glossary On
Versions: 1 2 3 4 5 6 7 8 9 10 11 12 13 14 15 16 17 18 19 20 21 22 23 24 25 26 27 28 29 30 31 32 33 34 35 36 37 38 39 40 41 42 43 44 45 46 47 48 49 50
000
ASUS43 KMKX 210921
RWRWI

WISCONSIN REGIONAL WEATHER ROUNDUP
NATIONAL WEATHER SERVICE MILWAUKEE/SULLIVAN WI
400 AM CDT FRI JUL 21 2017

NOTE: "FAIR" INDICATES FEW OR NO CLOUDS BELOW 12,000 FEET WITH NO
SIGNIFICANT WEATHER AND/OR OBSTRUCTIONS TO VISIBILITY.

WIZ001-002-006>008-014>016-023>028-211000-
NORTHWEST WISCONSIN

CITY           SKY/WX    TMP DP  RH WIND       PRES   REMARKS
SUPERIOR ARPT  NOT AVBL
ASHLAND        PTCLDY    60  59  96 SW5       29.97
HAYWARD        CLOUDY    61  58  90 CALM      29.98F
SIREN          PTCLDY    67  65  94 CALM      29.96F
CUMBERLAND     MOCLDY    61  61 100 E3        29.98F FOG
RICE LAKE      MOCLDY    62  62  97 CALM      29.98F FOG
CHETEK         MOCLDY    63  63 100 MISG      29.99F
LADYSMITH      CLOUDY    62  61  97 CALM      30.00F
EAU CLAIRE     PTCLDY    63  63 100 CALM      29.98F FOG
MENOMONIE        N/A     64  64  99 CALM      29.99F FOG
NEW RICHMOND     N/A     64  64  98 CALM      29.99F
OSCEOLA        PTCLDY    66  66 100 CALM      30.00F
$$

WIZ003>005-009-010-017-018-211000-
NORTH CENTRAL WISCONSIN

CITY           SKY/WX    TMP DP  RH WIND       PRES   REMARKS
MANITOWISH WTR FOG       55  55 100 CALM      30.01F VSB 1/2
ARBOR VITAE    CLOUDY    62  60  95 CALM      30.01S
WOODRUFF       CLOUDY    62  60  95 CALM      30.01S
RHINELANDER    CLEAR     60  60 100 CALM      30.01F
EAGLE RIVER    FOG       57  57 100 CALM      30.01S VSB 1/2
LAND O LAKES   PTCLDY    55  55 100 CALM      30.03S FOG
PHILLIPS       PTCLDY    60  60 100 CALM      30.00S
TOMAHAWK         N/A     53  53  97 CALM      30.01S
MEDFORD        FOG       60  60  99 CALM      30.01S VSB 1/4
MERRILL        CLEAR     59  59 100 SW3       30.01R
$$

WIZ029-030-035-036-043>047-211000-
CENTRAL WISCONSIN

CITY           SKY/WX    TMP DP  RH WIND       PRES   REMARKS
WAUSAU         CLEAR     64  63  96 SE5       29.99S
MOSINEE        FOG       61  61 100 CALM      30.01S VSB 1/4
MARSHFIELD     FOG       61  59  93 SW3       30.00S VSB 3/4
STEVENS POINT  CLEAR     56  56 100 SW5       30.01S
WAUPACA        PTCLDY    66  65  97 CALM      29.99R
WAUTOMA        CLOUDY    63  62  97 CALM      30.00R
WISC RAPIDS    FOG       63  62  97 CALM      30.02S VSB 1/4
CAMP DOUGLAS   FOG       61  61 100 CALM      29.99F VSB 1/2
$$

WIZ011>013-019>022-031-037>040-048>050-211000-
NORTHEAST WISCONSIN

CITY           SKY/WX    TMP DP  RH WIND       PRES   REMARKS
ANTIGO         CLEAR     56  56 100 CALM      30.02R
SHAWANO        CLEAR     64  62  93 CALM      29.98S
OCONTO         CLEAR     60  60  97 CALM      29.96F
STURGEON BAY     N/A     64  61  90 CALM      29.97S
GREEN BAY      CLEAR     64  64 100 NW3       29.97S
MANITOWOC      CLEAR     68  65  90 W5        29.98R
APPLETON       CLOUDY    64  64 100 CALM      29.98R
CLINTONVILLE   CLEAR     63  61  94 CALM      29.98F FOG
OSHKOSH        PTCLDY    69  66  90 W5        29.98R
$$

WIZ032>034-041-042-053>061-211000-
SOUTHWEST WISCONSIN

CITY           SKY/WX    TMP DP  RH WIND       PRES   REMARKS
LA CROSSE      CLOUDY    70  68  93 CALM      29.96F
SPARTA         FOG       59  59 100 CALM      29.99F VSB 1/4
VIROQUA        CLOUDY    66  66 100 E7        29.99F
BOSCOBEL       FOG       70  69  97 NE3       29.95F VSB 1/4
PRAIRIE DU CHI MOCLDY    69  68  96 CALM      29.94F
PLATTEVILLE    CLOUDY    73  73 100 E7        29.98S
$$

WIZ056-057-062-063-064-067-068-211000-
SOUTH CENTRAL WISCONSIN

CITY           SKY/WX    TMP DP  RH WIND       PRES   REMARKS
REEDSBURG      FOG       63  63 100 CALM      30.00R VSB 3/4
BARABOO/DELLS  CLOUDY    64  63  96 CALM      30.00S
LONE ROCK      FOG       68  67  96 CALM      29.97F VSB 1/4
MINERAL POINT  CLOUDY    70  70 100 SE5       29.99S
MADISON        CLOUDY    66  65  96 N5        29.98S
MIDDLETON      CLOUDY    66  66 100 CALM      29.99F VSB 1/4
WATERTOWN      CLOUDY    65  65 100 CALM      29.99S
MONROE         CLOUDY    72  68  88 CALM      30.00R
JANESVILLE     CLOUDY    73  73 100 CALM      29.98R
$$

WIZ051-052-058>065-066-070>072-211000-
SOUTHEAST WISCONSIN

CITY           SKY/WX    TMP DP  RH WIND       PRES   REMARKS
MILWAUKEE      CLOUDY    74  71  91 W3        29.98R
WAUKESHA       CLOUDY    66  66 100 CALM      30.00S
MILWAUKEE/TIMM CLOUDY    70  66  88 CALM      29.99S
RACINE         CLOUDY    70  69  97 CALM      30.00R
KENOSHA        CLOUDY    70  68  93 CALM      30.00R
FOND DU LAC    PTCLDY    69  65  86 CALM      29.99R
SHEBOYGAN      CLOUDY    65  65 100 CALM      29.98R
WEST BEND      CLOUDY    64  64 100 CALM      30.00R
JUNEAU         CLOUDY    66  66  98 CALM      30.01S FOG
$$

LSZ147-162-211000-
LAKE SUPERIOR

STATION/POSITION TIME  TEMP    WIND        PRES    WAVE
                       AIR SEA DIR/SP/G            HT/PER
                 (UTC) (F)     (DEG/KT/KT) (MB)    (FT/S)
W MID LAKE BUOY  0850   54 47  230/  4/  8 1014.5R   0
DEVILS ISLAND    0900   69     240/  3/  4 1014.1F
SAXON HARBOR     0840   64     190/  4/  6 1014.2R
$$

LMZ867-665-643>646-211000-
LAKE MICHIGAN

STATION/POSITION TIME  TEMP    WIND        PRES    WAVE
                       AIR SEA DIR/SP/G            HT/PER
                 (UTC) (F)     (DEG/KT/KT) (MB)    (FT/S)
CHAMBERS ISLAND  0840   64     200/  2/  3 1013.9S
S GREEN BAY BUOY 0900   71 72   10/  4/  4 1014.4F
N MID LAKE BUOY  0850   66 65  160/  8/  8 1014.6R   1/ 5
NORTHPORT PIER   0840   66     170/  4/  5 1014.2S
KEWAUNEE LAKESHO 0854   66     310/  3/  4 1013.9F
SHEBOYGAN LAKESH 0900   72     280/  6/  7 1014.6R
PORT WASHINGTON  0830   73     270/  5/  7 1015.9R
ATWATER BUOY     0809   71 66  300/  4/  4 1015.3R
MILWAUKEE LAKESH 0850   74     270/  3/  4   N/A
S MID LAKE BUOY  0850   71 70  310/  6/  6 1015.2R   0
KENOSHA   LAKESH 0900   70     190/  6/  7 1015.2
$$

TC  - TEMPERATURE IN CELSIUS
VSB - VISIBILITY IN STATUTE MILES
WCI - WIND CHILL INDEX
HX  - HEAT INDEX





USA.gov is the U.S. government's official web portal to all federal, state and local government web resources and services.